Tracking 25701 objects as of 4-Jul-2022
HD Live streaming from Space Station
objects crossing your sky now

FENGYUN 1C DEB

Track FENGYUN 1C DEB now!
10-day predictions


NORAD ID: 31921
Int'l Code: 1999-025CLY
Perigee: 848.9 km
Apogee: 1,162.0 km
Inclination: 99.4 °
Period: 105.1 minutes
Semi major axis: 7376 km
RCS: 0.0067 m2 (small)
Launch date: May 10, 1999
Source: People's Republic of China (PRC)
Launch site: Taiyaun Space Center, China (TSC)

Note: This is SATELLITE DEBRIS
aabbcc
Your satellite tracking list
Your tracking list is empty




NASA's NSSDC Master Catalog

Two Line Element Set (TLE):
1 31921U 99025CLY 22183.47771058  .00000323  00000-0  35519-3 0  9990
2 31921  99.3983  86.8578 0212202 312.5929  45.7486 13.70344880750319
Source of the keplerian elements: AFSPC